Location: Radomski Observatory
(40.2854°N, 79.5145°W)
Time: 08:14:18
(UTC-04:00)

Amateur Radio Satellites - All Passes

Search period start: 01 October 2014 07:44
Search period end: 02 October 2014 07:44
Location: Radomski Observatory, 40.2854°N, 79.5145°W

Satellite Date Start Highest point End Downlink Frequencies (MHz)
Time Altitude Azimuth
RS-15 01 Oct 07:47:03 07:54:10 19° 360° (N) 08:01:22 29.354 - 29.394 USB, Beacon 29.352 USB
JAS-2 01 Oct 07:54:03 08:00:25 49° 290° (WNW) 08:07:28 435.800 - 435.900 CW/SSB, 435.910 FM
STRAND 1 01 Oct 08:03:44 08:08:20 34° 263° (W) 08:12:59 ?
AO-7 01 Oct 08:38:18 08:40:51 12° 316° (NW) 08:43:25 29.400 - 29.500 MHz
Hamsat 01 Oct 08:38:49 08:40:23 12° 297° (WNW) 08:41:56 145.90 MHz
Sapphire 01 Oct 09:01:11 09:05:00 20° 106° (ESE) 09:08:51 437.095 MHz 1200 baud AX-25 AFSK
HO-68 01 Oct 09:05:22 09:10:22 20° 92° (E) 09:15:20 435.675 MHz FM
SO-67 01 Oct 09:11:10 09:13:57 23° 289° (WNW) 09:16:44 435.3500 MHz FM
PCSat 01 Oct 09:25:28 09:30:21 36° 110° (ESE) 09:35:16 145.825 MHz
UKube-1 01 Oct 09:49:36 09:51:52 14° 92° (E) 09:54:07 145.840 MHz, 145.915 MHz
RS-15 01 Oct 10:01:54 10:11:31 32° 35° (NE) 10:21:22 29.354 - 29.394 USB, Beacon 29.352 USB
ZACube-1 01 Oct 10:29:51 10:32:04 13° 90° (E) 10:34:15 437.345 MHz
Sapphire 01 Oct 10:42:41 10:47:58 55° 303° (WNW) 10:53:18 437.095 MHz 1200 baud AX-25 AFSK
HO-68 01 Oct 10:51:30 10:58:41 74° 289° (WNW) 11:05:50 435.675 MHz FM
Oscar 11 01 Oct 10:54:23 10:58:40 60° 101° (E) 11:02:55 145.825 FM, Beacon 2401.500 USB
PCSat 01 Oct 11:08:55 11:13:46 33° 308° (NW) 11:18:39 145.825 MHz
FUNcube-1 01 Oct 11:19:08 11:23:32 46° 99° (E) 11:27:47 145.950 - 145.970 MHz USB
UKube-1 01 Oct 11:24:06 11:28:20 51° 288° (WNW) 11:32:33 145.840 MHz, 145.915 MHz
ZACube-1 01 Oct 12:04:22 12:08:50 56° 286° (WNW) 12:13:11 437.345 MHz
RS-15 01 Oct 12:14:10 12:25:21 87° 240° (WSW) 12:37:02 29.354 - 29.394 USB, Beacon 29.352 USB
JAS-1B 01 Oct 12:29:48 12:32:03 12° 57° (ENE) 12:34:12 435.800 - 435.900 CW/SSB
Sapphire 01 Oct 12:31:31 12:32:38 11° 324° (NW) 12:33:46 437.095 MHz 1200 baud AX-25 AFSK
Oscar 11 01 Oct 12:32:27 12:34:20 13° 297° (WNW) 12:36:12 145.825 FM, Beacon 2401.500 USB
Oscar 16 01 Oct 12:39:05 12:42:03 16° 61° (ENE) 12:45:01 437.025 USB, Beacon 2401.1428
HO-68 01 Oct 12:41:36 12:45:11 15° 308° (NW) 12:48:46 435.675 MHz FM
FUNcube-1 01 Oct 12:56:33 12:59:31 17° 295° (WNW) 13:02:26 145.950 - 145.970 MHz USB
Oscar 19 01 Oct 13:34:43 13:39:41 48° 71° (ENE) 13:44:40 437.125 CW, 437.150 USB
ITAMSAT 1 01 Oct 13:47:59 13:52:17 28° 66° (ENE) 13:56:38 435.822 SSB
Uribyol 2 01 Oct 13:48:37 13:53:03 30° 67° (ENE) 13:57:32 436.500 FM
Saudisat 1A 01 Oct 13:57:18 14:01:10 31° 114° (ESE) 14:05:04 436.775 MHz
JAS-1B 01 Oct 14:14:13 14:21:52 72° 73° (ENE) 14:28:17 435.800 - 435.900 CW/SSB
Oscar 16 01 Oct 14:15:38 14:20:48 69° 258° (WSW) 14:26:00 437.025 USB, Beacon 2401.1428
AO-Echo 01 Oct 14:22:56 14:27:34 66° 74° (ENE) 14:32:16 ?
AO-27 01 Oct 14:25:34 14:30:40 62° 73° (ENE) 14:35:48 436.795 MHz FM
RS-15 01 Oct 14:28:39 14:36:10 21° 260° (W) 14:43:56 29.354 - 29.394 USB, Beacon 29.352 USB
Gurwin Techsat 1B 01 Oct 14:52:18 14:57:26 53° 72° (ENE) 15:02:36 435.225 FM
Oscar 19 01 Oct 15:15:29 15:19:15 20° 267° (W) 15:23:02 437.125 CW, 437.150 USB
TMSAT-1 01 Oct 15:20:34 15:25:49 72° 74° (ENE) 15:31:07 436.925 FM
ITAMSAT 1 01 Oct 15:26:54 15:31:37 36° 263° (W) 15:36:23 435.822 SSB
Uribyol 2 01 Oct 15:27:47 15:32:25 33° 263° (W) 15:37:06 436.500 FM
MaSat-1 01 Oct 15:31:23 15:34:41 57° 62° (ENE) 15:37:32 437.345 MHz
Saudisat 1A 01 Oct 15:36:54 15:40:44 28° 311° (NW) 15:44:35 436.775 MHz
Uosat F 01 Oct 15:45:49 15:49:29 21° 64° (ENE) 15:53:09 435.120 FM
AO-7 01 Oct 15:47:56 15:55:39 45° 63° (ENE) 16:03:23 29.400 - 29.500 MHz
AO-Echo 01 Oct 16:05:11 16:06:50 12° 270° (W) 16:08:29 ?
AO-27 01 Oct 16:07:39 16:10:36 15° 269° (W) 16:13:34 436.795 MHz FM
JAS-1B 01 Oct 16:07:43 16:12:47 19° 266° (W) 16:17:23 435.800 - 435.900 CW/SSB
KITSAT 1 01 Oct 16:09:14 16:14:53 21° 103° (ESE) 16:20:31 435.175 FM
Gurwin Techsat 1B 01 Oct 16:34:04 16:37:42 19° 268° (W) 16:41:22 435.225 FM
TMSAT-1 01 Oct 17:03:42 17:06:15 14° 270° (W) 17:08:49 436.925 FM
Uosat F 01 Oct 17:23:09 17:27:56 46° 260° (W) 17:32:45 435.120 FM
OPAL 01 Oct 17:33:36 17:37:52 27° 97° (E) 17:42:03 ?
AO-7 01 Oct 17:40:47 17:48:26 41° 261° (W) 17:56:09 29.400 - 29.500 MHz
Oscar 10/S400 01 Oct 17:46:53 18:05:07 55° 162° (SSE) 18:59:51 145.825 - 145.975 CW/USB, Beacon 145.810 USB
Sapphire 01 Oct 17:48:46 17:52:26 18° 44° (NE) 17:56:05 437.095 MHz 1200 baud AX-25 AFSK
Hamsat 01 Oct 17:53:26 17:57:29 40° 72° (ENE) 18:01:31 145.90 MHz
KITSAT 1 01 Oct 18:01:15 18:09:21 80° 301° (WNW) 18:17:29 435.175 FM
JAS-2 01 Oct 18:06:32 18:11:39 72° 74° (ENE) 18:17:05 435.800 - 435.900 CW/SSB, 435.910 FM
PCSat 01 Oct 18:13:43 18:18:24 28° 50° (NE) 18:23:02 145.825 MHz
AO-40 01 Oct 18:42:52 00:23:03 40° 186° (S) 05:56:21 Beacon 2401.320
SO-50 01 Oct 18:59:51 19:03:35 27° 113° (ESE) 19:07:25 436.795 FM
OPAL 01 Oct 19:12:10 19:16:47 36° 294° (WNW) 19:21:19 ?
Hamsat 01 Oct 19:30:44 19:33:35 17° 267° (W) 19:36:26 145.90 MHz
Sapphire 01 Oct 19:31:03 19:36:30 78° 243° (WSW) 19:41:54 437.095 MHz 1200 baud AX-25 AFSK
HO-68 01 Oct 19:35:28 19:39:23 16° 53° (NE) 19:43:19 435.675 MHz FM
SO-67 01 Oct 19:42:34 19:46:01 82° 259° (WSW) 19:49:28 435.3500 MHz FM
JAS-2 01 Oct 19:55:37 19:57:31 12° 272° (W) 19:59:26 435.800 - 435.900 CW/SSB, 435.910 FM
PCSat 01 Oct 19:56:50 20:01:57 43° 248° (WSW) 20:07:02 145.825 MHz
KITSAT 1 01 Oct 20:00:04 20:06:05 22° 324° (NW) 20:12:08 435.175 FM
STRAND 1 01 Oct 20:14:09 20:19:20 83° 104° (ESE) 20:24:29 ?
SO-50 01 Oct 20:39:54 20:44:00 34° 310° (NW) 20:48:13 436.795 FM
UKube-1 01 Oct 20:45:37 20:47:25 12° 62° (ENE) 20:49:13 145.840 MHz, 145.915 MHz
UOSAT-12 01 Oct 21:03:39 21:07:58 41° 116° (ESE) 21:12:24 437.025 FM, 437.400 FM
PANSAT 01 Oct 21:15:32 21:17:35 14° 177° (S) 21:19:38 not established
HO-68 01 Oct 21:18:51 21:25:58 80° 72° (ENE) 21:33:09 435.675 MHz FM
ZACube-1 01 Oct 21:26:56 21:28:31 12° 61° (ENE) 21:30:07 437.345 MHz
Oscar 11 01 Oct 21:48:47 21:52:55 44° 72° (ENE) 21:57:04 145.825 FM, Beacon 2401.500 USB
STRAND 1 01 Oct 21:55:37 21:57:48 13° 300° (WNW) 21:59:59 ?
FUNcube-1 01 Oct 22:14:50 22:18:58 36° 70° (ENE) 22:23:10 145.950 - 145.970 MHz USB
ISS 01 Oct 22:16:22 22:19:37 54° 139° (SE) 22:22:53 145.800 FM
UKube-1 01 Oct 22:18:47 22:23:04 63° 258° (WSW) 22:27:23 145.840 MHz, 145.915 MHz
Saudisat 1A 01 Oct 22:24:19 22:27:58 25° 47° (NE) 22:31:36 436.775 MHz
UOSAT-12 01 Oct 22:44:25 22:48:16 25° 314° (NW) 22:52:12 437.025 FM, 437.400 FM
PANSAT 01 Oct 22:55:33 22:57:01 12° 190° (S) 22:58:28 not established
ZACube-1 01 Oct 22:59:43 23:04:15 75° 258° (WSW) 23:08:53 437.345 MHz
HO-68 01 Oct 23:09:51 23:14:23 18° 269° (W) 23:18:58 435.675 MHz FM
Oscar 11 01 Oct 23:26:37 23:29:18 16° 268° (W) 23:32:00 145.825 FM, Beacon 2401.500 USB
FUNcube-1 01 Oct 23:51:56 23:55:25 22° 267° (W) 23:58:58 145.950 - 145.970 MHz USB
ISS 01 Oct 23:53:45 23:56:30 23° 336° (NNW) 23:59:16 145.800 FM
KITSAT 1 02 Oct 00:00:59 00:05:15 15° 26° (NNE) 00:09:30 435.175 FM
Saudisat 1A 02 Oct 00:03:32 00:07:38 38° 244° (WSW) 00:11:42 436.775 MHz
RS-15 02 Oct 00:33:51 00:37:15 12° 95° (E) 00:40:38 29.354 - 29.394 USB, Beacon 29.352 USB
ISS 02 Oct 01:32:47 01:34:08 12° 357° (N) 01:35:29 145.800 FM
Oscar 19 02 Oct 01:47:59 01:51:21 17° 92° (E) 01:54:40 437.125 CW, 437.150 USB
KITSAT 1 02 Oct 01:55:14 02:02:59 47° 51° (NE) 02:10:41 435.175 FM
JAS-1B 02 Oct 02:00:50 02:04:03 15° 92° (E) 02:07:23 435.800 - 435.900 CW/SSB
Oscar 16 02 Oct 02:28:03 02:32:58 44° 99° (E) 02:37:50 437.025 USB, Beacon 2401.1428
AO-Echo 02 Oct 02:30:48 02:34:49 23° 95° (E) 02:38:53 ?
RS-15 02 Oct 02:36:26 02:47:19 66° 115° (ESE) 02:58:03 29.354 - 29.394 USB, Beacon 29.352 USB
AO-27 02 Oct 02:39:49 02:43:57 23° 94° (E) 02:48:04 436.795 MHz FM
ISS 02 Oct 03:09:38 03:11:53 17° 17° (NNE) 03:14:09 145.800 FM
Gurwin Techsat 1B 02 Oct 03:09:44 03:13:50 22° 93° (E) 03:17:53 435.225 FM
Oscar 19 02 Oct 03:26:00 03:31:00 54° 288° (WNW) 03:35:58 437.125 CW, 437.150 USB
SO-50 02 Oct 03:31:21 03:35:23 26° 47° (NE) 03:39:26 436.795 FM
TMSAT-1 02 Oct 03:37:23 03:42:00 29° 96° (E) 03:46:35 436.925 FM
ITAMSAT 1 02 Oct 03:39:40 03:44:56 85° 104° (ESE) 03:50:10 435.822 SSB
Uribyol 2 02 Oct 03:40:19 03:45:35 89° 285° (WNW) 03:50:48 436.500 FM
JAS-1B 02 Oct 03:49:32 03:55:11 67° 287° (WNW) 04:01:21 435.800 - 435.900 CW/SSB
KITSAT 1 02 Oct 03:50:52 03:58:15 41° 251° (WSW) 04:05:37 435.175 FM
AO-7 02 Oct 03:53:11 03:56:07 12° 88° (E) 03:59:03 29.400 - 29.500 MHz
Oscar 16 02 Oct 04:08:04 04:12:01 23° 295° (WNW) 04:15:56 437.025 USB, Beacon 2401.1428
AO-Echo 02 Oct 04:08:59 04:13:40 41° 289° (WNW) 04:18:29 ?
AO-27 02 Oct 04:18:41 04:23:36 42° 290° (WNW) 04:28:29 436.795 MHz FM
ISS 02 Oct 04:45:44 04:49:03 71° 35° (NE) 04:52:22 145.800 FM
OPAL 02 Oct 04:47:34 04:52:32 47° 68° (ENE) 04:57:31 ?
Gurwin Techsat 1B 02 Oct 04:48:56 04:53:59 45° 290° (WNW) 04:59:00 435.225 FM
RS-15 02 Oct 04:50:15 05:00:19 40° 319° (NW) 05:10:26 29.354 - 29.394 USB, Beacon 29.352 USB
SO-50 02 Oct 05:11:32 05:16:07 43° 244° (WSW) 05:20:43 436.795 FM
MaSat-1 02 Oct 05:13:26 05:17:37 30° 107° (ESE) 05:21:40 437.345 MHz
TMSAT-1 02 Oct 05:17:10 05:21:54 34° 292° (WNW) 05:26:38 436.925 FM
JAS-2 02 Oct 05:17:47 05:19:48 11° 88° (E) 05:21:51 435.800 - 435.900 CW/SSB, 435.910 FM
ITAMSAT 1 02 Oct 05:21:27 05:23:41 13° 301° (WNW) 05:25:55 435.822 SSB
Uribyol 2 02 Oct 05:22:24 05:24:15 12° 301° (WNW) 05:26:06 436.500 FM
Uosat F 02 Oct 05:31:05 05:36:03 56° 101° (E) 05:40:59 435.120 FM
UOSAT-12 02 Oct 05:33:42 05:38:00 33° 49° (NE) 05:42:14 437.025 FM, 437.400 FM
AO-7 02 Oct 05:41:55 05:50:13 72° 106° (ESE) 05:58:30 29.400 - 29.500 MHz
STRAND 1 02 Oct 05:53:31 05:56:10 14° 61° (ENE) 05:58:49 ?
ISS 02 Oct 06:23:55 06:25:20 12° 231° (SW) 06:26:45 145.800 FM
OPAL 02 Oct 06:27:41 06:31:36 21° 264° (W) 06:35:32 ?
MaSat-1 02 Oct 06:49:42 06:54:00 32° 302° (WNW) 06:58:07 437.345 MHz
JAS-2 02 Oct 06:58:48 07:05:35 72° 102° (ESE) 07:13:07 435.800 - 435.900 CW/SSB, 435.910 FM
RS-15 02 Oct 07:09:44 07:16:59 19° 352° (N) 07:24:20 29.354 - 29.394 USB, Beacon 29.352 USB
Uosat F 02 Oct 07:11:04 07:14:22 18° 297° (WNW) 07:17:40 435.120 FM
UOSAT-12 02 Oct 07:14:00 07:18:04 29° 247° (WSW) 07:22:04 437.025 FM, 437.400 FM
Hamsat 02 Oct 07:15:12 07:19:25 89° 103° (ESE) 07:23:35 145.90 MHz
STRAND 1 02 Oct 07:29:38 07:34:43 73° 257° (WSW) 07:39:50 ?
